Time,TemperatureF,DewpointF,PressureIn,WindDirection,WindDirectionDegrees,WindSpeedMPH,WindSpeedGustMPH,Humidity,HourlyPrecipIn,Conditions,Clouds,dailyrainin,SoftwareType,DateUTC
2013-03-25 00:02:00,40.0,2.0,29.84,North,352,4.0,7.0,20,0.00,,,0.00,,2013-03-25 06:02:00,
2013-03-25 00:12:00,40.0,2.0,29.84,North,352,4.0,7.0,20,0.00,,,0.00,,2013-03-25 06:12:00,
2013-03-25 00:22:00,39.0,1.0,29.84,NNW,344,2.0,5.0,20,0.00,,,0.00,,2013-03-25 06:22:00,
2013-03-25 00:32:00,39.0,2.0,29.84,NNW,331,5.0,8.0,21,0.00,,,0.00,,2013-03-25 06:32:00,
2013-03-25 00:42:00,39.0,2.0,29.84,NNW,331,5.0,8.0,21,0.00,,,0.00,,2013-03-25 06:42:00,
2013-03-25 00:52:00,38.0,2.0,29.85,North,0,3.0,5.0,21,0.00,,,0.00,,2013-03-25 06:52:00,
2013-03-25 01:02:00,37.0,1.0,29.85,NNE,24,1.0,3.0,21,0.00,,,0.00,,2013-03-25 07:02:00,
2013-03-25 01:12:00,37.0,1.0,29.85,NNE,24,1.0,3.0,21,0.00,,,0.00,,2013-03-25 07:12:00,
2013-03-25 01:22:00,36.0,0.0,29.85,North,0,0.0,1.0,21,0.00,,,0.00,,2013-03-25 07:22:00,
2013-03-25 01:32:00,35.0,-1.0,29.86,SW,225,1.0,2.0,21,0.00,,,0.00,,2013-03-25 07:32:00,
2013-03-25 01:42:00,35.0,-1.0,29.86,SW,225,1.0,2.0,21,0.00,,,0.00,,2013-03-25 07:42:00,
2013-03-25 01:53:00,35.0,-1.0,29.87,SW,232,1.0,3.0,21,0.00,,,0.00,,2013-03-25 07:53:00,
2013-03-25 02:02:00,34.0,-1.0,29.87,WSW,255,0.0,2.0,22,0.00,,,0.00,,2013-03-25 08:02:00,
2013-03-25 02:12:00,34.0,-1.0,29.87,WSW,255,0.0,2.0,22,0.00,,,0.00,,2013-03-25 08:12:00,
2013-03-25 02:22:00,33.0,-2.0,29.87,ESE,113,1.0,1.0,22,0.00,,,0.00,,2013-03-25 08:22:00,
2013-03-25 02:32:00,33.0,-1.0,29.87,SW,225,0.0,1.0,23,0.00,,,0.00,,2013-03-25 08:32:00,
2013-03-25 02:42:00,33.0,-1.0,29.87,SW,225,0.0,1.0,23,0.00,,,0.00,,2013-03-25 08:42:00,
2013-03-25 02:52:00,32.0,0.0,29.88,NNW,340,1.0,2.0,25,0.00,,,0.00,,2013-03-25 08:52:00,
2013-03-25 03:02:00,32.0,-1.0,29.88,SSE,161,1.0,2.0,24,0.00,,,0.00,,2013-03-25 09:02:00,
2013-03-25 03:12:00,32.0,-1.0,29.88,SSE,161,1.0,2.0,24,0.00,,,0.00,,2013-03-25 09:12:00,
2013-03-25 03:22:00,31.0,0.0,29.87,NNW,336,1.0,3.0,26,0.00,,,0.00,,2013-03-25 09:22:00,
2013-03-25 03:32:00,31.0,2.0,29.87,NW,320,3.0,5.0,28,0.00,,,0.00,,2013-03-25 09:32:00,
2013-03-25 03:42:00,31.0,2.0,29.87,NW,320,3.0,5.0,28,0.00,,,0.00,,2013-03-25 09:42:00,
2013-03-25 03:52:00,31.0,3.0,29.88,NW,313,1.0,6.0,29,0.00,,,0.00,,2013-03-25 09:52:00,
2013-03-25 04:03:00,30.0,2.0,29.89,West,271,2.0,5.0,30,0.00,,,0.00,,2013-03-25 10:03:00,
2013-03-25 04:12:00,30.0,2.0,29.89,West,271,2.0,5.0,30,0.00,,,0.00,,2013-03-25 10:12:00,
2013-03-25 04:22:00,30.0,4.0,29.90,West,267,2.0,4.0,32,0.00,,,0.00,,2013-03-25 10:22:00,
2013-03-25 04:32:00,30.0,3.0,29.90,West,262,2.0,4.0,31,0.00,,,0.00,,2013-03-25 10:32:00,
2013-03-25 04:42:00,30.0,3.0,29.90,West,262,2.0,4.0,31,0.00,,,0.00,,2013-03-25 10:42:00,
2013-03-25 04:54:00,29.0,2.0,29.90,West,262,2.0,4.0,31,0.00,,,0.00,,2013-03-25 10:54:00,
2013-03-25 05:03:00,29.0,2.0,29.91,West,276,2.0,3.0,31,0.00,,,0.00,,2013-03-25 11:03:00,
2013-03-25 05:12:00,28.0,2.0,29.90,West,264,1.0,2.0,32,0.00,,,0.00,,2013-03-25 11:12:00,
2013-03-25 05:23:00,28.0,2.0,29.90,West,264,1.0,2.0,32,0.00,,,0.00,,2013-03-25 11:23:00,
2013-03-25 05:32:00,28.0,5.0,29.90,WNW,292,2.0,4.0,36,0.00,,,0.00,,2013-03-25 11:32:00,
2013-03-25 05:42:00,28.0,5.0,29.90,WNW,292,2.0,4.0,36,0.00,,,0.00,,2013-03-25 11:42:00,
2013-03-25 05:52:00,28.0,4.0,29.91,WNW,288,1.0,3.0,35,0.00,,,0.00,,2013-03-25 11:52:00,
2013-03-25 06:02:00,28.0,4.0,29.91,West,275,1.0,4.0,35,0.00,,,0.00,,2013-03-25 12:02:00,
2013-03-25 06:12:00,27.0,2.0,29.90,WSW,248,0.0,2.0,34,0.00,,,0.00,,2013-03-25 12:12:00,
2013-03-25 06:23:00,27.0,2.0,29.90,WSW,248,0.0,2.0,34,0.00,,,0.00,,2013-03-25 12:23:00,
2013-03-25 06:32:00,27.0,2.0,29.90,WSW,248,1.0,1.0,34,0.00,,,0.00,,2013-03-25 12:32:00,
2013-03-25 06:42:00,27.0,2.0,29.90,WSW,248,1.0,1.0,34,0.00,,,0.00,,2013-03-25 12:42:00,
2013-03-25 06:53:00,26.0,2.0,29.91,West,270,0.0,1.0,34,0.00,,,0.00,,2013-03-25 12:53:00,
2013-03-25 07:02:00,26.0,2.0,29.91,WSW,248,0.0,0.0,35,0.00,,,0.00,,2013-03-25 13:02:00,
2013-03-25 07:13:00,26.0,2.0,29.91,WSW,248,0.0,0.0,35,0.00,,,0.00,,2013-03-25 13:13:00,
2013-03-25 07:22:00,26.0,2.0,29.91,WSW,244,1.0,2.0,35,0.00,,,0.00,,2013-03-25 13:22:00,
2013-03-25 07:32:00,25.0,2.0,29.92,SW,233,0.0,1.0,36,0.00,,,0.00,,2013-03-25 13:32:00,
2013-03-25 07:42:00,25.0,2.0,29.92,SW,233,0.0,1.0,36,0.00,,,0.00,,2013-03-25 13:42:00,
2013-03-25 07:52:00,25.0,2.0,29.93,West,270,0.0,1.0,37,0.00,,,0.00,,2013-03-25 13:52:00,
2013-03-25 08:03:00,26.0,4.0,29.93,West,267,1.0,2.0,38,0.00,,,0.00,,2013-03-25 14:03:00,
2013-03-25 08:12:00,26.0,4.0,29.93,West,267,1.0,2.0,38,0.00,,,0.00,,2013-03-25 14:12:00,
2013-03-25 08:22:00,26.0,4.0,29.93,WSW,248,0.0,1.0,38,0.00,,,0.00,,2013-03-25 14:22:00,
2013-03-25 08:32:00,27.0,5.0,29.94,SSE,158,0.0,1.0,38,0.00,,,0.00,,2013-03-25 14:32:00,
2013-03-25 08:42:00,27.0,5.0,29.94,SSE,158,0.0,1.0,38,0.00,,,0.00,,2013-03-25 14:42:00,
2013-03-25 08:53:00,28.0,6.0,29.96,WSW,238,1.0,2.0,39,0.00,,,0.00,,2013-03-25 14:53:00,
2013-03-25 09:02:00,29.0,8.0,29.96,NW,310,3.0,4.0,40,0.00,,,0.00,,2013-03-25 15:02:00,
2013-03-25 09:12:00,29.0,8.0,29.96,NW,310,3.0,4.0,40,0.00,,,0.00,,2013-03-25 15:12:00,
2013-03-25 09:22:00,30.0,8.0,29.96,West,269,1.0,3.0,38,0.00,,,0.00,,2013-03-25 15:22:00,
2013-03-25 09:32:00,32.0,9.0,29.97,West,267,2.0,3.0,37,0.00,,,0.00,,2013-03-25 15:32:00,
2013-03-25 09:42:00,32.0,9.0,29.97,West,267,2.0,3.0,37,0.00,,,0.00,,2013-03-25 15:42:00,
2013-03-25 09:53:00,33.0,9.0,29.97,NW,309,1.0,3.0,36,0.00,,,0.00,,2013-03-25 15:53:00,
2013-03-25 10:03:00,34.0,9.0,29.97,WSW,248,3.0,3.0,35,0.00,,,0.00,,2013-03-25 16:03:00,
2013-03-25 10:12:00,34.0,9.0,29.97,WSW,248,3.0,3.0,35,0.00,,,0.00,,2013-03-25 16:12:00,
2013-03-25 10:23:00,34.0,9.0,29.97,WSW,248,3.0,3.0,35,0.00,,,0.00,,2013-03-25 16:23:00,
2013-03-25 10:33:00,36.0,9.0,29.97,WNW,283,4.0,5.0,32,0.00,,,0.00,,2013-03-25 16:33:00,
2013-03-25 10:43:00,36.0,9.0,29.97,WNW,283,4.0,5.0,32,0.00,,,0.00,,2013-03-25 16:43:00,
2013-03-25 10:53:00,38.0,9.0,29.97,SW,225,1.0,3.0,30,0.00,,,0.00,,2013-03-25 16:53:00,
2013-03-25 11:02:00,39.0,9.0,29.97,WSW,250,1.0,5.0,29,0.00,,,0.00,,2013-03-25 17:02:00,
2013-03-25 11:12:00,39.0,9.0,29.97,WSW,250,1.0,5.0,29,0.00,,,0.00,,2013-03-25 17:12:00,
2013-03-25 11:23:00,40.0,10.0,29.97,West,259,1.0,4.0,28,0.00,,,0.00,,2013-03-25 17:23:00,
2013-03-25 11:32:00,40.0,10.0,29.97,West,268,2.0,3.0,28,0.00,,,0.00,,2013-03-25 17:32:00,
2013-03-25 11:42:00,40.0,10.0,29.97,West,268,2.0,3.0,28,0.00,,,0.00,,2013-03-25 17:42:00,
2013-03-25 11:53:00,42.0,10.0,29.96,West,259,2.0,4.0,26,0.00,,,0.00,,2013-03-25 17:53:00,
2013-03-25 12:03:00,42.0,9.0,29.96,NW,326,2.0,5.0,25,0.00,,,0.00,,2013-03-25 18:03:00,
2013-03-25 12:12:00,42.0,9.0,29.96,NW,326,2.0,5.0,25,0.00,,,0.00,,2013-03-25 18:12:00,
2013-03-25 12:22:00,46.0,9.0,29.95,West,269,2.0,3.0,22,0.00,,,0.00,,2013-03-25 18:22:00,
2013-03-25 12:32:00,46.0,9.0,29.94,East,100,1.0,4.0,22,0.00,,,0.00,,2013-03-25 18:32:00,
2013-03-25 12:42:00,46.0,9.0,29.94,East,100,1.0,4.0,22,0.00,,,0.00,,2013-03-25 18:42:00,
2013-03-25 12:53:00,49.0,7.0,29.93,NNW,341,5.0,7.0,18,0.00,,,0.00,,2013-03-25 18:53:00,
2013-03-25 13:03:00,50.0,8.0,29.92,WNW,284,2.0,4.0,18,0.00,,,0.00,,2013-03-25 19:03:00,
2013-03-25 13:12:00,50.0,8.0,29.92,WNW,284,2.0,4.0,18,0.00,,,0.00,,2013-03-25 19:12:00,
2013-03-25 13:22:00,49.0,7.0,29.92,North,352,3.0,5.0,18,0.00,,,0.00,,2013-03-25 19:22:00,
2013-03-25 13:33:00,49.0,7.0,29.91,NNW,331,4.0,10.0,18,0.00,,,0.00,,2013-03-25 19:33:00,
2013-03-25 13:42:00,49.0,7.0,29.91,NNW,331,4.0,10.0,18,0.00,,,0.00,,2013-03-25 19:42:00,
2013-03-25 13:52:00,48.0,7.0,29.90,NE,36,3.0,5.0,18,0.00,,,0.00,,2013-03-25 19:52:00,
2013-03-25 14:02:00,49.0,7.0,29.91,East,82,3.0,7.0,18,0.00,,,0.00,,2013-03-25 20:02:00,
2013-03-25 14:12:00,49.0,7.0,29.91,East,82,3.0,7.0,18,0.00,,,0.00,,2013-03-25 20:12:00,
2013-03-25 14:22:00,52.0,10.0,29.91,SE,138,2.0,8.0,18,0.00,,,0.00,,2013-03-25 20:22:00,
2013-03-25 14:32:00,53.0,9.0,29.91,WSW,242,2.0,7.0,17,0.00,,,0.00,,2013-03-25 20:32:00,
2013-03-25 14:42:00,53.0,9.0,29.91,WSW,242,2.0,7.0,17,0.00,,,0.00,,2013-03-25 20:42:00,
2013-03-25 14:52:00,55.0,11.0,29.91,WSW,246,2.0,4.0,17,0.00,,,0.00,,2013-03-25 20:52:00,
2013-03-25 15:02:00,54.0,9.0,29.91,West,269,3.0,5.0,16,0.00,,,0.00,,2013-03-25 21:02:00,
2013-03-25 15:12:00,54.0,9.0,29.91,West,269,3.0,5.0,16,0.00,,,0.00,,2013-03-25 21:12:00,
2013-03-25 15:22:00,55.0,11.0,29.89,SSW,195,3.0,8.0,17,0.00,,,0.00,,2013-03-25 21:22:00,
2013-03-25 15:33:00,56.0,10.0,29.89,WSW,242,4.0,7.0,16,0.00,,,0.00,,2013-03-25 21:33:00,
2013-03-25 15:42:00,56.0,10.0,29.89,WSW,242,4.0,7.0,16,0.00,,,0.00,,2013-03-25 21:42:00,
2013-03-25 15:52:00,56.0,12.0,29.88,SE,141,2.0,5.0,17,0.00,,,0.00,,2013-03-25 21:52:00,
2013-03-25 16:03:00,57.0,11.0,29.87,SE,129,3.0,5.0,16,0.00,,,0.00,,2013-03-25 22:03:00,
2013-03-25 16:12:00,57.0,11.0,29.87,SE,129,3.0,5.0,16,0.00,,,0.00,,2013-03-25 22:12:00,
2013-03-25 16:23:00,57.0,11.0,29.87,SE,142,3.0,7.0,16,0.00,,,0.00,,2013-03-25 22:23:00,
2013-03-25 16:33:00,57.0,11.0,29.86,SW,224,4.0,9.0,16,0.00,,,0.00,,2013-03-25 22:33:00,
2013-03-25 16:42:00,57.0,11.0,29.86,SW,224,4.0,9.0,16,0.00,,,0.00,,2013-03-25 22:42:00,
2013-03-25 16:52:00,57.0,11.0,29.85,ESE,108,3.0,7.0,16,0.00,,,0.00,,2013-03-25 22:52:00,
2013-03-25 17:02:00,58.0,11.0,29.85,SW,233,7.0,9.0,15,0.00,,,0.00,,2013-03-25 23:02:00,
2013-03-25 17:12:00,58.0,11.0,29.85,SW,233,7.0,9.0,15,0.00,,,0.00,,2013-03-25 23:12:00,
2013-03-25 17:23:00,58.0,11.0,29.84,West,277,7.0,11.0,15,0.00,,,0.00,,2013-03-25 23:23:00,
2013-03-25 17:32:00,57.0,11.0,29.84,NW,319,7.0,12.0,16,0.00,,,0.00,,2013-03-25 23:32:00,
2013-03-25 17:42:00,57.0,11.0,29.84,NW,319,7.0,12.0,16,0.00,,,0.00,,2013-03-25 23:42:00,
2013-03-25 17:52:00,57.0,11.0,29.85,WSW,251,6.0,11.0,16,0.00,,,0.00,,2013-03-25 23:52:00,
2013-03-25 18:02:00,57.0,11.0,29.84,NNW,336,7.0,11.0,16,0.00,,,0.00,,2013-03-26 00:02:00,
2013-03-25 18:12:00,57.0,11.0,29.84,NNW,336,7.0,11.0,16,0.00,,,0.00,,2013-03-26 00:12:00,
2013-03-25 18:22:00,56.0,12.0,29.84,NW,323,13.0,17.0,17,0.00,,,0.00,,2013-03-26 00:22:00,
2013-03-25 18:32:00,55.0,11.0,29.84,NNW,336,9.0,15.0,17,0.00,,,0.00,,2013-03-26 00:32:00,
2013-03-25 18:42:00,55.0,11.0,29.84,NNW,336,9.0,15.0,17,0.00,,,0.00,,2013-03-26 00:42:00,
2013-03-25 18:52:00,55.0,11.0,29.85,North,349,6.0,11.0,17,0.00,,,0.00,,2013-03-26 00:52:00,
2013-03-25 19:02:00,55.0,11.0,29.85,NW,309,6.0,14.0,17,0.00,,,0.00,,2013-03-26 01:02:00,
2013-03-25 19:12:00,55.0,11.0,29.85,NW,309,6.0,14.0,17,0.00,,,0.00,,2013-03-26 01:12:00,
2013-03-25 19:22:00,54.0,10.0,29.86,NNW,341,7.0,16.0,17,0.00,,,0.00,,2013-03-26 01:22:00,
2013-03-25 19:32:00,54.0,10.0,29.87,NW,326,8.0,11.0,17,0.00,,,0.00,,2013-03-26 01:32:00,
2013-03-25 19:42:00,54.0,10.0,29.87,NW,326,8.0,11.0,17,0.00,,,0.00,,2013-03-26 01:42:00,
2013-03-25 19:52:00,53.0,11.0,29.87,NW,317,3.0,8.0,18,0.00,,,0.00,,2013-03-26 01:52:00,
2013-03-25 20:02:00,53.0,11.0,29.87,NNW,331,4.0,7.0,18,0.00,,,0.00,,2013-03-26 02:02:00,
2013-03-25 20:12:00,53.0,11.0,29.87,NNW,331,4.0,7.0,18,0.00,,,0.00,,2013-03-26 02:12:00,
2013-03-25 20:22:00,52.0,10.0,29.88,North,354,1.0,6.0,18,0.00,,,0.00,,2013-03-26 02:22:00,
2013-03-25 20:32:00,52.0,11.0,29.88,NNW,329,3.0,4.0,19,0.00,,,0.00,,2013-03-26 02:32:00,
2013-03-25 20:42:00,52.0,11.0,29.88,NNW,329,3.0,4.0,19,0.00,,,0.00,,2013-03-26 02:42:00,
2013-03-25 20:52:00,51.0,10.0,29.89,North,0,0.0,3.0,19,0.00,,,0.00,,2013-03-26 02:52:00,
2013-03-25 21:02:00,51.0,11.0,29.89,NNW,346,1.0,2.0,20,0.00,,,0.00,,2013-03-26 03:02:00,
2013-03-25 21:12:00,51.0,11.0,29.89,NNW,346,1.0,2.0,20,0.00,,,0.00,,2013-03-26 03:12:00,
2013-03-25 21:22:00,50.0,11.0,29.91,North,0,0.0,1.0,20,0.00,,,0.00,,2013-03-26 03:22:00,
2013-03-25 21:33:00,50.0,11.0,29.92,SSE,158,0.0,1.0,20,0.00,,,0.00,,2013-03-26 03:33:00,
2013-03-25 21:42:00,50.0,11.0,29.92,SSE,158,0.0,1.0,20,0.00,,,0.00,,2013-03-26 03:42:00,
2013-03-25 21:53:00,49.0,10.0,29.92,WSW,248,1.0,1.0,20,0.00,,,0.00,,2013-03-26 03:53:00,
2013-03-25 22:03:00,49.0,11.0,29.93,SW,225,1.0,2.0,21,0.00,,,0.00,,2013-03-26 04:03:00,
2013-03-25 22:12:00,49.0,11.0,29.93,SW,225,1.0,2.0,21,0.00,,,0.00,,2013-03-26 04:12:00,
2013-03-25 22:23:00,49.0,10.0,29.94,SSW,211,1.0,2.0,20,0.00,,,0.00,,2013-03-26 04:23:00,
2013-03-25 22:32:00,49.0,10.0,29.94,SSE,152,1.0,1.0,20,0.00,,,0.00,,2013-03-26 04:32:00,
2013-03-25 22:43:00,49.0,10.0,29.94,SSE,152,1.0,1.0,20,0.00,,,0.00,,2013-03-26 04:43:00,
2013-03-25 22:53:00,48.0,10.0,29.94,SSE,149,2.0,2.0,21,0.00,,,0.00,,2013-03-26 04:53:00,
2013-03-25 23:02:00,48.0,10.0,29.95,SSE,164,1.0,1.0,21,0.00,,,0.00,,2013-03-26 05:02:00,
2013-03-25 23:12:00,48.0,10.0,29.95,SSE,164,1.0,1.0,21,0.00,,,0.00,,2013-03-26 05:12:00,
2013-03-25 23:22:00,48.0,10.0,29.95,SSE,158,0.0,0.0,21,0.00,,,0.00,,2013-03-26 05:22:00,
2013-03-25 23:32:00,48.0,10.0,29.95,SSE,158,0.0,0.0,21,0.00,,,0.00,,2013-03-26 05:32:00,
2013-03-25 23:42:00,48.0,10.0,29.95,SSE,158,0.0,0.0,21,0.00,,,0.00,,2013-03-26 05:42:00,
2013-03-25 23:52:00,47.0,9.0,29.95,SE,137,3.0,3.0,21,0.00,,,0.00,,2013-03-26 05:52:00,